• In Romania
  • List of Countries
  • For 7 days
  • Water Temperature
  • Satellite Maps
  • Weather Map
  • Weather Widgets
  • user-avatar
    Login

    Hourly Weather Berberati

    Today, 18 February, Sunday

    Time Temperature Precipitation Wind Pressure Humidity
    00:00 +27°C° 0 mm 1 mps 711 mmHg 61%
    01:00 +27°C° 0 mm 1 mps 711 mmHg 63%
    02:00 +26°C° 0.3 mm 1 mps 711 mmHg 67%
    03:00 +25°C° 0.3 mm 1 mps 711 mmHg 71%
    04:00 +25°C° 0.3 mm 1 mps 711 mmHg 75%
    05:00 +24°C° 0.9 mm 1 mps 711 mmHg 78%
    06:00 +24°C° 0.9 mm 1 mps 712 mmHg 81%
    07:00 +24°C° 0.9 mm 1 mps 712 mmHg 85%
    08:00 +27°C° 0.2 mm 1 mps 713 mmHg 73%
    09:00 +30°C° 0.2 mm 2 mps 713 mmHg 61%
    10:00 +32°C° 0.2 mm 2 mps 714 mmHg 49%
    11:00 +36°C° 0 mm 2 mps 713 mmHg 42%
    12:00 +37°C° 0 mm 1 mps 712 mmHg 34%
    13:00 +41°C° 0 mm 1 mps 712 mmHg 27%
    14:00 +39°C° 0 mm 1 mps 711 mmHg 30%
    15:00 +36°C° 0 mm 1 mps 711 mmHg 33%
    16:00 +34°C° 0 mm 1 mps 710 mmHg 36%
    17:00 +33°C° 0.1 mm 1 mps 710 mmHg 42%
    18:00 +31°C° 0.1 mm 1 mps 710 mmHg 48%
    19:00 +29°C° 0.1 mm 1 mps 710 mmHg 54%
    20:00 +28°C° 0 mm 1 mps 710 mmHg 57%
    21:00 +28°C° 0 mm 1 mps 711 mmHg 61%
    22:00 +27°C° 0 mm 1 mps 711 mmHg 64%
    23:00 +27°C° 0 mm 1 mps 711 mmHg 67%

    Tomorrow, 19 February, Monday

    Time Temperature Precipitation Wind Pressure Humidity
    00:00 +26°C° 0 mm 1 mps 711 mmHg 69%
    01:00 +26°C° 0 mm 1 mps 711 mmHg 72%
    02:00 +25°C° 0 mm 1 mps 711 mmHg 75%
    03:00 +25°C° 0 mm 1 mps 711 mmHg 79%
    04:00 +24°C° 0 mm 1 mps 711 mmHg 82%
    05:00 +24°C° 0.5 mm 1 mps 711 mmHg 84%
    06:00 +24°C° 0.5 mm 2 mps 712 mmHg 85%
    07:00 +24°C° 0.5 mm 2 mps 712 mmHg 87%
    08:00 +25°C° 0 mm 2 mps 713 mmHg 80%
    09:00 +27°C° 0 mm 2 mps 713 mmHg 74%
    10:00 +28°C° 0 mm 2 mps 714 mmHg 68%
    11:00 +29°C° 0.6 mm 2 mps 713 mmHg 64%
    12:00 +31°C° 0.6 mm 2 mps 712 mmHg 59%
    13:00 +32°C° 0.6 mm 2 mps 712 mmHg 55%
    14:00 +30°C° 0.5 mm 2 mps 711 mmHg 63%
    15:00 +28°C° 0.5 mm 2 mps 710 mmHg 70%
    16:00 +26°C° 0.5 mm 2 mps 710 mmHg 78%
    17:00 +26°C° 1.2 mm 2 mps 710 mmHg 80%
    18:00 +25°C° 1.2 mm 2 mps 710 mmHg 82%
    19:00 +25°C° 1.2 mm 1 mps 711 mmHg 85%
    20:00 +24°C° 0 mm 1 mps 711 mmHg 85%
    21:00 +24°C° 0 mm 1 mps 712 mmHg 85%
    22:00 +24°C° 0 mm 1 mps 712 mmHg 86%
    23:00 +24°C° 0 mm 1 mps 712 mmHg 86%

    Day after tomorrow, 20 February, Tuesday

    Time Temperature Precipitation Wind Pressure Humidity
    00:00 +24°C° 0 mm 1 mps 712 mmHg 87%
    01:00 +24°C° 0 mm 1 mps 711 mmHg 87%
    02:00 +21°C° 0 mm 0 mps 711 mmHg 89%
    03:00 +21°C° 0 mm 0 mps 711 mmHg 90%
    04:00 +21°C° 0 mm 0 mps 710 mmHg 92%
    05:00 +23°C° 0 mm 1 mps 711 mmHg 91%
    06:00 +23°C° 0 mm 1 mps 711 mmHg 90%
    07:00 +24°C° 0 mm 1 mps 712 mmHg 89%
    08:00 +26°C° 0 mm 1 mps 712 mmHg 77%
    09:00 +28°C° 0 mm 2 mps 713 mmHg 66%
    10:00 +31°C° 0 mm 2 mps 713 mmHg 55%
    11:00 +32°C° 0 mm 2 mps 712 mmHg 49%
    12:00 +35°C° 0 mm 2 mps 711 mmHg 43%
    13:00 +36°C° 0 mm 1 mps 711 mmHg 37%
    14:00 +36°C° 0 mm 1 mps 710 mmHg 38%
    15:00 +35°C° 0 mm 1 mps 709 mmHg 39%
    16:00 +34°C° 0 mm 1 mps 708 mmHg 40%
    17:00 +33°C° 0 mm 1 mps 709 mmHg 45%
    18:00 +31°C° 0 mm 1 mps 709 mmHg 51%
    19:00 +29°C° 0 mm 1 mps 709 mmHg 56%
    20:00 +29°C° 0 mm 1 mps 710 mmHg 60%
    21:00 +28°C° 0 mm 1 mps 710 mmHg 64%
    22:00 +27°C° 0 mm 1 mps 711 mmHg 68%
    23:00 +26°C° 0 mm 1 mps 710 mmHg 71%

    21 February, Wednesday

    Time Temperature Precipitation Wind Pressure Humidity
    00:00 +26°C° 0 mm 1 mps 710 mmHg 74%
    01:00 +25°C° 0 mm 1 mps 710 mmHg 77%
    02:00 +25°C° 0.2 mm 1 mps 710 mmHg 81%
    03:00 +24°C° 0.2 mm 1 mps 710 mmHg 85%
    04:00 +23°C° 0.2 mm 1 mps 710 mmHg 89%
    05:00 +23°C° 0.3 mm 1 mps 710 mmHg 90%
    06:00 +24°C° 0.3 mm 1 mps 711 mmHg 90%
    07:00 +24°C° 0.3 mm 1 mps 712 mmHg 90%
    08:00 +26°C° 0 mm 2 mps 712 mmHg 78%
    09:00 +29°C° 0 mm 2 mps 712 mmHg 65%
    10:00 +32°C° 0 mm 2 mps 712 mmHg 53%
    11:00 +35°C° 0 mm 2 mps 712 mmHg 46%
    12:00 +37°C° 0 mm 2 mps 711 mmHg 39%
    13:00 +39°C° 0 mm 1 mps 710 mmHg 32%
    14:00 +37°C° 0 mm 1 mps 709 mmHg 34%
    15:00 +37°C° 0 mm 1 mps 709 mmHg 35%
    16:00 +36°C° 0 mm 1 mps 708 mmHg 37%
    17:00 +34°C° 0 mm 1 mps 708 mmHg 42%
    18:00 +32°C° 0 mm 1 mps 709 mmHg 47%
    19:00 +30°C° 0 mm 1 mps 709 mmHg 52%
    20:00 +29°C° 1 mm 1 mps 709 mmHg 60%
    21:00 +28°C° 1 mm 1 mps 709 mmHg 68%
    22:00 +26°C° 1 mm 2 mps 710 mmHg 77%
    23:00 +26°C° 0 mm 2 mps 710 mmHg 79%

    22 February, Thursday

    Time Temperature Precipitation Wind Pressure Humidity
    00:00 +26°C° 0 mm 2 mps 710 mmHg 81%
    01:00 +26°C° 0 mm 2 mps 710 mmHg 84%
    02:00 +25°C° 0 mm 2 mps 710 mmHg 84%
    03:00 +25°C° 0 mm 2 mps 710 mmHg 84%
    04:00 +25°C° 0 mm 2 mps 710 mmHg 84%
    05:00 +25°C° 0.1 mm 1 mps 710 mmHg 85%
    06:00 +25°C° 0.1 mm 1 mps 711 mmHg 85%
    07:00 +25°C° 0.1 mm 1 mps 711 mmHg 86%
    08:00 +27°C° 0.1 mm 1 mps 712 mmHg 76%
    09:00 +29°C° 0.1 mm 2 mps 712 mmHg 66%
    10:00 +32°C° 0.1 mm 2 mps 712 mmHg 55%
    11:00 +34°C° 0 mm 2 mps 711 mmHg 49%
    12:00 +36°C° 0 mm 2 mps 710 mmHg 43%
    13:00 +38°C° 0 mm 2 mps 709 mmHg 37%
    14:00 +37°C° 0 mm 2 mps 709 mmHg 37%
    15:00 +36°C° 0 mm 1 mps 708 mmHg 38%
    16:00 +36°C° 0 mm 1 mps 708 mmHg 38%
    17:00 +34°C° 0 mm 1 mps 708 mmHg 42%
    18:00 +33°C° 0 mm 1 mps 708 mmHg 47%
    19:00 +31°C° 0 mm 1 mps 709 mmHg 51%
    20:00 +29°C° 0.9 mm 1 mps 709 mmHg 61%
    21:00 +28°C° 0.9 mm 1 mps 709 mmHg 71%
    22:00 +26°C° 0.9 mm 1 mps 709 mmHg 82%
    23:00 +26°C° 0.7 mm 1 mps 709 mmHg 84%

    23 February, Friday

    Time Temperature Precipitation Wind Pressure Humidity
    00:00 +25°C° 0.7 mm 1 mps 709 mmHg 87%
    01:00 +25°C° 0.7 mm 1 mps 710 mmHg 90%
    02:00 +25°C° 0.1 mm 1 mps 710 mmHg 90%
    03:00 +25°C° 0.1 mm 1 mps 710 mmHg 90%
    04:00 +25°C° 0.1 mm 1 mps 710 mmHg 90%
    05:00 +25°C° 0 mm 1 mps 710 mmHg 90%
    06:00 +25°C° 0 mm 1 mps 711 mmHg 89%
    07:00 +25°C° 0 mm 1 mps 711 mmHg 88%
    08:00 +26°C° 0.9 mm 1 mps 712 mmHg 82%
    09:00 +28°C° 0.9 mm 1 mps 712 mmHg 77%
    10:00 +29°C° 0.9 mm 1 mps 713 mmHg 71%
    11:00 +30°C° 0.3 mm 1 mps 712 mmHg 65%
    12:00 +31°C° 0.3 mm 1 mps 712 mmHg 59%
    13:00 +33°C° 0.3 mm 1 mps 711 mmHg 53%
    14:00 +33°C° 0.1 mm 1 mps 711 mmHg 52%
    15:00 +34°C° 0.1 mm 2 mps 710 mmHg 50%
    16:00 +34°C° 0.1 mm 2 mps 710 mmHg 49%
    17:00 +31°C° 0 mm 2 mps 710 mmHg 56%
    18:00 +29°C° 0 mm 1 mps 710 mmHg 62%
    19:00 +28°C° 0 mm 1 mps 710 mmHg 69%
    20:00 +27°C° 0 mm 1 mps 710 mmHg 72%
    21:00 +26°C° 0 mm 1 mps 710 mmHg 75%
    22:00 +26°C° 0 mm 1 mps 710 mmHg 77%
    23:00 +25°C° 0 mm 1 mps 710 mmHg 79%
    Show more